RH
81 71 60 53 53 55 58 57 49 46 51 56 62 65 56 47 42 40 37 33 30 28 27 27 25 24 24 20 19 19 19 21 24 29 37 39 36 33 35 34 34 38 45 41
73 63 55 64 65 66 64 59 52 51 51 50 57 57 53 47 40 36 33 30 28 26 26 25 23 23 24 22 20 18 18 19 21 23 24 29 35 35 35 34 33 31 35 46
72 64 66 64 66 68 61 57 56 53 52 49 59 56 50 42 40 36 29 28 26 25 24 23 23 23 21 19 18 18 17 17 16 17 17 18 20 25 29 26 24 22 24 33
74 75 76 78 73 68 66 59 58 61 56 56 56 46 43 43 39 33 27 26 25 24 24 24 24 23 22 19 18 18 17 17 17 18 19 20 20 20 24 29 29 29 31 29
79 74 82 86 79 73 72 65 61 61 59 64 59 58 37 47 44 34 29 27 27 26 26 26 25 23 23 21 19 19 19 19 18 17 16 16 17 19 22 26 31 34 33 32
86 87 89 92 90 81 77 76 68 63 62 70 59 55 45 40 41 38 31 28 28 28 29 30 28 26 25 23 21 20 19 19 20 19 18 18 18 18 18 19 22 26 31 33
94 93 91 95 96 87 82 81 86 83 80 67 48 61 43 36 35 36 33 32 32 29 31 31 30 27 27 26 25 23 22 21 20 20 20 21 22 21 20 19 20 25 33 37
99 98 97 93 93 92 83 73 77 70 74 61 53 64 48 36 30 30 32 31 31 30 31 33 32 31 29 28 27 26 26 25 26 26 26 25 24 25 24 25 27 28 31 36
98 97 97 96 92 89 88 88 68 70 53 65 52 47 48 42 35 35 33 30 32 32 32 33 32 31 31 31 31 31 31 30 31 32 32 34 34 33 33 32 32 32 32 33
87 98 97 97 97 94 90 79 81 81 81 62 51 44 41 39 38 37 32 31 34 33 35 36 35 35 35 35 35 35 36 35 37 36 35 35 37 37 36 35 34 33 32 32
81 83 96 97 98 94 90 86 74 72 72 78 60 45 35 35 33 33 34 37 37 37 40 40 39 38 38 39 40 40 40 40 40 37 36 34 34 33 34 36 34 32 29 29
75 77 92 87 86 88 94 92 81 87 79 67 68 56 39 38 36 36 38 38 40 40 43 44 44 42 42 42 43 44 43 42 40 39 39 36 34 33 33 31 29 29 30 31
67 79 87 82 77 77 82 83 90 78 79 85 83 63 48 45 42 41 42 43 45 47 49 48 46 45 46 47 46 46 45 42 40 39 38 37 36 35 35 34 33 32 32 32
64 67 74 80 75 71 71 70 74 78 83 73 66 59 54 46 41 42 44 46 50 52 53 51 49 48 47 48 49 47 44 43 43 42 42 42 43 42 40 40 36 34 34 36
59 76 69 59 60 64 66 62 63 68 63 67 53 54 48 46 48 47 47 49 55 55 55 51 50 50 50 50 49 49 48 47 49 49 49 50 50 49 47 42 39 40 40 40
50 64 65 65 57 54 57 56 56 57 58 57 55 56 50 47 46 44 47 57 58 58 58 53 51 50 48 48 49 51 52 53 54 54 55 56 55 52 51 48 49 47 49 49
51 56 59 67 57 56 61 49 45 45 48 50 57 49 48 46 44 47 57 63 61 60 61 55 51 49 49 48 49 51 53 54 55 57 58 58 59 59 59 58 58 57 55 52
49 54 60 65 61 68 42 42 44 44 43 46 46 46 45 44 47 54 64 63 63 63 60 55 52 50 49 50 51 51 53 54 56 58 59 61 62 62 61 61 60 61 60 60
50 57 65 65 65 47 41 46 48 51 50 45 44 47 46 52 61 68 68 68 63 63 62 58 53 52 52 52 52 52 52 55 57 58 61 63 64 61 61 61 60 59 59 59
56 57 61 65 63 62 56 54 52 55 64 55 53 49 53 67 75 80 76 68 66 65 65 60 57 55 54 52 54 53 53 55 57 57 57 57 58 57 56 55 54 54 55 56
68 66 69 67 64 52 49 52 56 69 68 63 60 66 73 83 81 78 72 69 68 66 67 64 62 58 56 55 56 55 55 53 53 53 53 52 50 50 50 50 49 45 39 34
57 64 67 65 68 64 48 53 62 64 68 71 75 81 86 86 84 81 76 72 73 70 71 67 63 60 59 60 58 56 55 51 51 50 48 46 44 42 40 37 32 29 28 27
56 49 52 52 57 53 54 55 57 59 63 71 79 85 90 92 91 87 82 75 74 74 73 70 66 64 64 63 61 60 58 51 48 46 43 39 36 34 33 31 29 28 28 27
52 50 50 50 47 50 54 57 62 63 63 67 75 84 91 94 91 88 84 80 75 74 75 73 70 68 67 67 67 65 59 53 45 42 40 37 35 35 35 33 31 29 28 27
61 55 53 51 50 52 51 53 57 62 68 69 71 76 82 86 86 86 84 79 76 74 74 77 75 72 71 71 71 71 62 55 44 41 39 37 36 37 36 35 32 31 30 28
73 68 63 58 53 54 56 56 56 61 64 67 69 70 69 71 77 78 79 83 76 74 75 76 77 77 76 75 74 74 71 59 49 43 40 39 38 37 38 37 36 34 33 32